Flag for China Weather past 2 weeks in Hangzhou, China

Now
57 °F

Fog.


Feels Like: 57 °F
Forecast: 55 / 65 °F
Wind: 3 mph from Northeast

Location: Hangzhou Airport


UV Index: 5 (Moderate)

Visibility: 2 mi


Pressure: 30.01 "Hg

Humidity: 88%

Dew point: 54 °F

Location of HangzhouLocation

Historic Weather in Hangzhou

°F

Hangzhou temperature yesterday

Maximum temperature yesterday: 59 °F (at 9:30 AM)
Minimum temperature yesterday: 55 °F (at 7:00 AM)
Average temperature yesterday: 58 °F

Past Weeks' High & Low Weather Summary

 TemperatureHumidityPressure
High79 °F (Apr 10, 1:00 PM)94% (Apr 9, 4:30 AM)30.36 "Hg (Apr 9, 4:30 AM)
Low46 °F (Apr 6, 2:00 AM)23% (Apr 5, 12:30 PM)29.74 "Hg (Apr 12, 4:00 AM)
Average62 °F69%30.00 "Hg
* Reported Apr 5 3:00 AM — Apr 20 3:30 AM, Hangzhou, Weather by CustomWeather, © 2014

Note: Actual official high and low records may vary slightly from our data, if they occured in-between our weather recording intervals... More about our weather records

Advertising

Historic Weather Conditions — Data for Previous 24 hours

 ConditionsComfort  
Time TempWeatherWind HumidityBarometerVisibility
3:30 AM
Apr 20
57 °FFog.3 mph88%30.01 "Hg2 mi
3:00 AM57 °FFog.6 mph88%30.01 "Hg2 mi
2:30 AM57 °FLight rain. Fog.6 mph88%30.01 "Hg2 mi
2:00 AM57 °FFog.6 mph88%30.01 "Hg2 mi
1:30 AM57 °FSprinkles. Fog.3 mph88%30.01 "Hg2 mi
1:00 AM57 °FSprinkles. Fog.3 mph94%30.01 "Hg2 mi
12:30 AM57 °FSprinkles. Fog.6 mph88%30.01 "Hg2 mi
12:00 AM57 °FLight rain. Fog.3 mph88%30.01 "Hg2 mi
11:30 PM
Apr 19
59 °FLight rain. Fog.6 mph88%30.01 "Hg2 mi
11:00 PM59 °FFog.6 mph82%30.04 "Hg2 mi
10:30 PM59 °FFog.8 mph88%30.04 "Hg2 mi
10:00 PM59 °FFog.6 mph88%30.04 "Hg2 mi
9:30 PM59 °FFog.6 mph88%30.04 "Hg2 mi
9:00 PM59 °FLight rain. Fog.6 mph88%30.04 "Hg1 mi
8:30 PM59 °FLight rain. Fog.3 mph88%30.01 "Hg1 mi
8:00 PM59 °FLight rain. Fog.6 mph88%30.01 "Hg1 mi
7:30 PM59 °FFog.6 mph82%29.98 "Hg2 mi
7:00 PM59 °FLight rain. Fog.3 mph82%29.98 "Hg1 mi
6:30 PM59 °FLight rain. Fog.3 mph82%29.98 "Hg1 mi
6:00 PM59 °FLight rain. Fog.3 mph82%29.95 "Hg1 mi
5:30 PM59 °FLight rain. Fog.3 mph82%29.95 "Hg1 mi
5:00 PM59 °FLight rain. Fog.3 mph82%29.95 "Hg1 mi
4:30 PM59 °FLight rain. Fog.6 mph82%29.92 "Hg2 mi
4:00 PM59 °FLight rain. Fog.8 mph82%29.92 "Hg2 mi
3:30 PM59 °FFog.6 mph82%29.92 "Hg2 mi
3:00 PM59 °FFog.6 mph82%29.92 "Hg2 mi
2:30 PM59 °FFog.6 mph82%29.92 "Hg2 mi
2:00 PM59 °FFog.8 mph82%29.92 "Hg2 mi
1:30 PM59 °FFog.6 mph82%29.92 "Hg2 mi
1:00 PM59 °FFog.6 mph82%29.95 "Hg2 mi
12:30 PM59 °FFog.6 mph82%29.92 "Hg2 mi
12:00 PM59 °FFog.8 mph82%29.92 "Hg2 mi
11:30 AM59 °FFog.6 mph82%29.92 "Hg2 mi
11:00 AM59 °FFog.6 mph82%29.95 "Hg2 mi
10:30 AM59 °FFog.3 mph82%29.92 "Hg2 mi
10:00 AM59 °FFog.3 mph82%29.92 "Hg2 mi
9:30 AM59 °FFog.6 mph82%29.92 "Hg2 mi
9:00 AM57 °FFog.6 mph88%29.92 "Hg2 mi
8:30 AM57 °FFog.3 mph88%29.92 "Hg2 mi
8:00 AM57 °FSprinkles. Fog.6 mph88%29.92 "Hg2 mi
7:30 AM57 °FSprinkles. Fog.6 mph88%29.92 "Hg2 mi
7:00 AM55 °FThunderstorms. Fog.6 mph94%29.95 "Hg1 mi
6:30 AM57 °FThunderstorms. Fog.8 mph88%29.98 "Hg1 mi
6:00 AM57 °FDrizzle. Fog.10 mph82%29.95 "Hg2 mi
5:30 AM57 °FDrizzle. Fog.8 mph82%29.92 "Hg3 mi
5:00 AM57 °FFog.8 mph82%29.92 "Hg3 mi
4:30 AM57 °FFog.10 mph88%29.89 "Hg3 mi
4:00 AM57 °FFog.8 mph88%29.89 "Hg3 mi
Weather by CustomWeather, © 2014

See weather overview